Location: Bidwell Hollow
(37.7387°N, 90.1707°W)
Time: 18:48:05
(UTC+00:00)

NOAA 15 - Visible Passes

Search period start: 03 December 2024 00:00
Search period end: 13 December 2024 00:00
Orbit: 795 x 809 km, 98.6° (Epoch: 03 December)

Date Brightness Start Highest point End Pass type
(mag) Time Alt. Az. Time Alt. Az. Time Alt. Az.
03 Dec 5.2 01:07:55 10° S 01:13:06 55° W 01:18:19 10° NNW visible
04 Dec 4.4 00:41:52 10° SSE 00:47:10 84° ENE 00:52:28 10° NNW visible
04 Dec 7.6 02:26:59 10° W 02:27:28 10° W 02:27:57 10° W visible
05 Dec 4.8 00:16:15 10° SE 00:21:18 48° ENE 00:26:22 10° N visible
05 Dec 7.0 01:57:32 10° SW 02:01:14 19° W 02:04:59 10° NW visible
05 Dec 5.4 23:51:08 10° SE 23:55:33 28° ENE 23:59:59 10° N visible
06 Dec 6.1 01:30:21 10° SSW 01:35:07 34° W 01:39:54 10° NNW visible
06 Dec 7.9 12:09:44 10° ENE 12:11:09 11° E 12:12:34 10° ESE visible
06 Dec 6.0 23:26:41 10° E 23:29:54 16° ENE 23:33:06 10° NNE visible
07 Dec 5.0 01:03:52 10° S 01:09:06 61° W 01:14:20 10° NNW visible
08 Dec 4.4 00:37:53 10° SSE 00:43:09 77° ENE 00:48:27 10° N visible
08 Dec 7.6 02:21:49 10° WSW 02:23:24 11° W 02:25:01 10° WNW visible
09 Dec 4.8 00:12:20 10° SE 00:17:19 44° ENE 00:22:18 10° N visible
09 Dec 6.9 01:53:16 10° SW 01:57:12 21° W 02:01:08 10° NW visible
09 Dec 7.4 12:29:40 10° NE 12:33:19 19° E 12:36:56 10° SE visible
09 Dec 5.5 23:47:18 10° ESE 23:51:35 26° ENE 23:55:51 10° NNE visible
10 Dec 5.9 01:26:14 10° SSW 01:31:05 37° W 01:35:58 10° NNW visible
10 Dec 6.1 23:23:00 10° E 23:25:56 15° ENE 23:28:51 10° NNE visible
11 Dec 4.9 00:59:49 10° S 01:05:04 66° WSW 01:10:20 10° NNW visible
12 Dec 4.4 00:33:53 10° SSE 00:39:09 71° ENE 00:44:25 10° N visible
12 Dec 7.5 02:17:09 10° WSW 02:19:20 12° W 02:21:31 10° WNW visible
